Tracking 29892 objects as of 21-Nov-2024
HD Live streaming from Space Station
objects crossing your sky now

STARLINK-1187

Track STARLINK-1187 now!
10-day predictions
STARLINK-1187 is classified as:


NORAD ID: 45219
Int'l Code: 2020-012AT
Perigee: 464.9 km
Apogee: 466.7 km
Inclination: 53.1 °
Period: 93.8 minutes
Semi major axis: 6836 km
RCS: Unknown
Launch date: February 17, 2020
Source: United States (US)
Launch site: AIR FORCE EASTERN TEST RANGE (AFETR)
Your satellite tracking list
Your tracking list is empty




NASA's NSSDC Master Catalog

Two Line Element Set (TLE):
1 45219U 20012AT  24325.91668981  .01238519  00000-0  32209-1 0  9996
2 45219  53.0546 332.0580 0001325  85.2073 185.9541 15.35753363  5732
Source of the keplerian elements: AFSPC